Time,TemperatureF,DewpointF,PressureIn,WindDirection,WindDirectionDegrees,WindSpeedMPH,WindSpeedGustMPH,Humidity,HourlyPrecipIn,Conditions,Clouds,dailyrainin,SoftwareType,DateUTC
2013-08-10 00:02:00,66.1,63.4,30.13,North,5,5.0,6.0,91,0.00,,,0.00,Wunderground v.1.15,2013-08-10 05:02:00,
2013-08-10 00:08:00,66.0,63.3,30.13,North,360,4.0,6.0,91,0.00,,,0.00,Wunderground v.1.15,2013-08-10 05:08:00,
2013-08-10 00:14:00,65.8,63.4,30.13,North,355,5.0,6.0,92,0.00,,,0.00,Wunderground v.1.15,2013-08-10 05:14:00,
2013-08-10 00:20:00,65.9,63.5,30.13,North,350,5.0,7.0,92,0.00,,,0.00,Wunderground v.1.15,2013-08-10 05:20:00,
2013-08-10 00:26:00,65.8,63.1,30.13,NNE,13,5.0,7.0,91,0.00,,,0.00,Wunderground v.1.15,2013-08-10 05:26:00,
2013-08-10 00:31:00,65.7,63.3,30.13,NNE,16,5.0,6.0,92,0.00,,,0.00,Wunderground v.1.15,2013-08-10 05:31:00,
2013-08-10 00:36:00,65.4,63.0,30.13,North,5,5.0,7.0,92,0.00,,,0.00,Wunderground v.1.15,2013-08-10 05:36:00,
2013-08-10 00:41:00,65.3,62.9,30.13,NNE,13,5.0,7.0,92,0.00,,,0.00,Wunderground v.1.15,2013-08-10 05:41:00,
2013-08-10 00:47:00,65.2,62.8,30.13,NNE,13,6.0,7.0,92,0.00,,,0.00,Wunderground v.1.15,2013-08-10 05:47:00,
2013-08-10 00:53:00,65.1,62.7,30.13,NNE,13,6.0,7.0,92,0.00,,,0.00,Wunderground v.1.15,2013-08-10 05:53:00,
2013-08-10 00:58:00,65.0,62.6,30.13,NNE,19,5.0,7.0,92,0.00,,,0.00,Wunderground v.1.15,2013-08-10 05:58:00,
2013-08-10 01:03:00,65.0,62.6,30.13,NNE,16,5.0,6.0,92,0.00,,,0.00,Wunderground v.1.15,2013-08-10 06:03:00,
2013-08-10 01:09:00,64.9,62.5,30.13,NNE,22,5.0,7.0,92,0.00,,,0.00,Wunderground v.1.15,2013-08-10 06:09:00,
2013-08-10 01:14:00,64.8,62.7,30.13,NNE,17,5.0,7.0,93,0.00,,,0.00,Wunderground v.1.15,2013-08-10 06:14:00,
2013-08-10 01:19:00,64.8,62.7,30.14,NNE,14,5.0,7.0,93,0.00,,,0.00,Wunderground v.1.15,2013-08-10 06:19:00,
2013-08-10 01:24:00,64.9,62.5,30.14,North,9,4.0,6.0,92,0.00,,,0.00,Wunderground v.1.15,2013-08-10 06:24:00,
2013-08-10 01:29:00,65.0,62.6,30.14,North,355,4.0,6.0,92,0.00,,,0.00,Wunderground v.1.15,2013-08-10 06:29:00,
2013-08-10 01:35:00,65.0,62.6,30.14,North,360,4.0,6.0,92,0.00,,,0.00,Wunderground v.1.15,2013-08-10 06:35:00,
2013-08-10 01:40:00,65.0,62.6,30.14,North,5,4.0,6.0,92,0.00,,,0.00,Wunderground v.1.15,2013-08-10 06:40:00,
2013-08-10 01:45:00,65.0,62.6,30.14,North,360,5.0,6.0,92,0.00,,,0.00,Wunderground v.1.15,2013-08-10 06:45:00,
2013-08-10 01:50:00,65.0,62.6,30.14,North,5,4.0,5.0,92,0.00,,,0.00,Wunderground v.1.15,2013-08-10 06:50:00,
2013-08-10 01:55:00,64.9,62.5,30.14,North,360,4.0,6.0,92,0.00,,,0.00,Wunderground v.1.15,2013-08-10 06:55:00,
2013-08-10 02:00:00,64.8,62.4,30.14,North,355,3.0,4.0,92,0.00,,,0.00,Wunderground v.1.15,2013-08-10 07:00:00,
2013-08-10 02:05:00,64.7,62.3,30.14,North,355,3.0,4.0,92,0.00,,,0.00,Wunderground v.1.15,2013-08-10 07:05:00,
2013-08-10 02:10:00,64.6,62.2,30.14,North,355,4.0,5.0,92,0.00,,,0.00,Wunderground v.1.15,2013-08-10 07:10:00,
2013-08-10 02:15:00,64.5,62.1,30.14,North,350,4.0,5.0,92,0.00,,,0.00,Wunderground v.1.15,2013-08-10 07:15:00,
2013-08-10 02:20:00,64.4,62.0,30.14,North,349,4.0,5.0,92,0.00,,,0.00,Wunderground v.1.15,2013-08-10 07:20:00,
2013-08-10 02:25:00,64.3,61.9,30.14,North,355,4.0,5.0,92,0.00,,,0.00,Wunderground v.1.15,2013-08-10 07:25:00,
2013-08-10 02:30:00,64.2,61.8,30.14,North,350,4.0,4.0,92,0.00,,,0.00,Wunderground v.1.15,2013-08-10 07:30:00,
2013-08-10 02:35:00,64.1,62.0,30.14,NNW,348,4.0,4.0,93,0.00,,,0.00,Wunderground v.1.15,2013-08-10 07:35:00,
2013-08-10 02:40:00,64.1,62.0,30.14,NNW,348,3.0,3.0,93,0.00,,,0.00,Wunderground v.1.15,2013-08-10 07:40:00,
2013-08-10 02:45:00,64.1,61.7,30.14,NNW,348,3.0,4.0,92,0.00,,,0.00,Wunderground v.1.15,2013-08-10 07:45:00,
2013-08-10 02:51:00,64.0,61.9,30.14,NNW,348,3.0,3.0,93,0.00,,,0.00,Wunderground v.1.15,2013-08-10 07:51:00,
2013-08-10 02:56:00,63.9,61.8,30.14,NNW,348,2.0,4.0,93,0.00,,,0.00,Wunderground v.1.15,2013-08-10 07:56:00,
2013-08-10 03:02:00,63.7,61.6,30.14,NNW,343,3.0,5.0,93,0.00,,,0.00,Wunderground v.1.15,2013-08-10 08:02:00,
2013-08-10 03:08:00,63.6,61.5,30.14,NNW,346,3.0,5.0,93,0.00,,,0.00,Wunderground v.1.15,2013-08-10 08:08:00,
2013-08-10 03:14:00,63.7,61.6,30.14,NNW,348,4.0,6.0,93,0.00,,,0.00,Wunderground v.1.15,2013-08-10 08:14:00,
2013-08-10 03:19:00,63.8,61.7,30.14,NNW,348,4.0,6.0,93,0.00,,,0.00,Wunderground v.1.15,2013-08-10 08:19:00,
2013-08-10 03:25:00,63.8,61.7,30.14,NNW,346,5.0,7.0,93,0.00,,,0.00,Wunderground v.1.15,2013-08-10 08:25:00,
2013-08-10 03:31:00,63.8,61.7,30.14,NNW,345,5.0,6.0,93,0.00,,,0.00,Wunderground v.1.15,2013-08-10 08:31:00,
2013-08-10 03:37:00,63.7,61.6,30.14,NNW,342,5.0,6.0,93,0.00,,,0.00,Wunderground v.1.15,2013-08-10 08:37:00,
2013-08-10 03:42:00,63.7,61.3,30.14,NNW,347,4.0,6.0,92,0.00,,,0.00,Wunderground v.1.15,2013-08-10 08:42:00,
2013-08-10 03:47:00,63.6,61.2,30.14,NNW,346,4.0,6.0,92,0.00,,,0.00,Wunderground v.1.15,2013-08-10 08:47:00,
2013-08-10 03:52:00,63.6,61.5,30.14,NNW,346,3.0,5.0,93,0.00,,,0.00,Wunderground v.1.15,2013-08-10 08:52:00,
2013-08-10 03:58:00,63.5,61.1,30.14,NNW,346,3.0,5.0,92,0.00,,,0.00,Wunderground v.1.15,2013-08-10 08:58:00,
2013-08-10 04:03:00,63.6,61.5,30.14,NNW,346,4.0,7.0,93,0.00,,,0.00,Wunderground v.1.15,2013-08-10 09:03:00,
2013-08-10 04:08:00,63.9,61.5,30.13,North,360,5.0,7.0,92,0.00,,,0.00,Wunderground v.1.15,2013-08-10 09:08:00,
2013-08-10 04:13:00,64.0,61.6,30.13,NNW,345,5.0,7.0,92,0.00,,,0.00,Wunderground v.1.15,2013-08-10 09:13:00,
2013-08-10 04:18:00,64.0,61.6,30.13,NNW,347,6.0,8.0,92,0.00,,,0.00,Wunderground v.1.15,2013-08-10 09:18:00,
2013-08-10 04:23:00,64.0,61.6,30.12,NNW,346,6.0,8.0,92,0.00,,,0.00,Wunderground v.1.15,2013-08-10 09:23:00,
2013-08-10 04:28:00,64.0,61.6,30.12,North,350,6.0,8.0,92,0.00,,,0.00,Wunderground v.1.15,2013-08-10 09:28:00,
2013-08-10 04:33:00,64.1,61.7,30.12,North,360,6.0,7.0,92,0.00,,,0.00,Wunderground v.1.15,2013-08-10 09:33:00,
2013-08-10 04:39:00,64.0,61.6,30.12,NNW,347,6.0,7.0,92,0.00,,,0.00,Wunderground v.1.15,2013-08-10 09:39:00,
2013-08-10 04:44:00,64.0,61.9,30.12,NNW,344,6.0,7.0,93,0.00,,,0.00,Wunderground v.1.15,2013-08-10 09:44:00,
2013-08-10 04:49:00,63.9,61.8,30.12,North,355,5.0,7.0,93,0.00,,,0.00,Wunderground v.1.15,2013-08-10 09:49:00,
2013-08-10 04:54:00,64.0,61.9,30.12,North,355,6.0,8.0,93,0.00,,,0.00,Wunderground v.1.15,2013-08-10 09:54:00,
2013-08-10 04:59:00,64.1,62.0,30.12,North,355,6.0,8.0,93,0.00,,,0.00,Wunderground v.1.15,2013-08-10 09:59:00,
2013-08-10 05:04:00,64.1,62.0,30.12,North,350,6.0,8.0,93,0.00,,,0.00,Wunderground v.1.15,2013-08-10 10:04:00,
2013-08-10 05:09:00,64.2,62.1,30.12,North,355,7.0,9.0,93,0.00,,,0.00,Wunderground v.1.15,2013-08-10 10:09:00,
2013-08-10 05:14:00,64.2,62.1,30.12,North,5,7.0,9.0,93,0.00,,,0.00,Wunderground v.1.15,2013-08-10 10:14:00,
2013-08-10 05:20:00,64.1,62.0,30.12,North,5,6.0,6.0,93,0.00,,,0.00,Wunderground v.1.15,2013-08-10 10:20:00,
2013-08-10 05:25:00,63.9,61.8,30.13,North,5,5.0,7.0,93,0.00,,,0.00,Wunderground v.1.15,2013-08-10 10:25:00,
2013-08-10 05:31:00,63.9,61.8,30.13,North,5,5.0,6.0,93,0.00,,,0.00,Wunderground v.1.15,2013-08-10 10:31:00,
2013-08-10 05:37:00,63.9,61.8,30.12,North,9,5.0,8.0,93,0.00,,,0.00,Wunderground v.1.15,2013-08-10 10:37:00,
2013-08-10 05:42:00,63.9,61.8,30.12,NNE,12,6.0,7.0,93,0.00,,,0.00,Wunderground v.1.15,2013-08-10 10:42:00,
2013-08-10 05:48:00,63.9,61.8,30.12,North,5,6.0,7.0,93,0.00,,,0.00,Wunderground v.1.15,2013-08-10 10:48:00,
2013-08-10 05:53:00,63.9,61.8,30.13,North,11,6.0,7.0,93,0.00,,,0.00,Wunderground v.1.15,2013-08-10 10:53:00,
2013-08-10 05:59:00,63.8,61.7,30.13,North,5,5.0,7.0,93,0.00,,,0.00,Wunderground v.1.15,2013-08-10 10:59:00,
2013-08-10 06:05:00,63.9,62.1,30.13,North,5,5.0,7.0,94,0.00,,,0.00,Wunderground v.1.15,2013-08-10 11:05:00,
2013-08-10 06:10:00,63.9,61.8,30.13,North,5,5.0,6.0,93,0.00,,,0.00,Wunderground v.1.15,2013-08-10 11:10:00,
2013-08-10 06:15:00,64.0,61.9,30.13,North,5,5.0,7.0,93,0.00,,,0.00,Wunderground v.1.15,2013-08-10 11:15:00,
2013-08-10 06:20:00,63.9,61.8,30.13,North,351,5.0,5.0,93,0.00,,,0.00,Wunderground v.1.15,2013-08-10 11:20:00,
2013-08-10 06:26:00,63.9,61.8,30.13,North,360,4.0,6.0,93,0.00,,,0.00,Wunderground v.1.15,2013-08-10 11:26:00,
2013-08-10 06:31:00,63.9,61.8,30.13,North,5,5.0,6.0,93,0.00,,,0.00,Wunderground v.1.15,2013-08-10 11:31:00,
2013-08-10 06:36:00,63.9,61.8,30.14,North,5,5.0,6.0,93,0.00,,,0.00,Wunderground v.1.15,2013-08-10 11:36:00,
2013-08-10 06:41:00,63.8,61.7,30.14,North,5,5.0,6.0,93,0.00,,,0.00,Wunderground v.1.15,2013-08-10 11:41:00,
2013-08-10 06:47:00,63.8,61.7,30.14,North,5,6.0,8.0,93,0.00,,,0.00,Wunderground v.1.15,2013-08-10 11:47:00,
2013-08-10 06:52:00,63.8,61.7,30.14,NNE,13,6.0,8.0,93,0.00,,,0.00,Wunderground v.1.15,2013-08-10 11:52:00,
2013-08-10 06:58:00,63.9,61.8,30.15,NNW,348,6.0,8.0,93,0.00,,,0.00,Wunderground v.1.15,2013-08-10 11:58:00,
2013-08-10 07:03:00,63.8,61.7,30.15,NNE,15,5.0,7.0,93,0.00,,,0.00,Wunderground v.1.15,2013-08-10 12:03:00,
2013-08-10 07:08:00,63.8,61.7,30.15,North,5,5.0,7.0,93,0.00,,,0.00,Wunderground v.1.15,2013-08-10 12:08:00,
2013-08-10 07:13:00,63.9,62.1,30.15,North,5,6.0,9.0,94,0.00,,,0.00,Wunderground v.1.15,2013-08-10 12:13:00,
2013-08-10 07:19:00,64.1,62.3,30.15,North,5,6.0,9.0,94,0.00,,,0.00,Wunderground v.1.15,2013-08-10 12:19:00,
2013-08-10 07:24:00,64.2,62.1,30.15,NNE,30,6.0,9.0,93,0.00,,,0.00,Wunderground v.1.15,2013-08-10 12:24:00,
2013-08-10 07:29:00,64.4,62.3,30.16,North,360,6.0,9.0,93,0.00,,,0.00,Wunderground v.1.15,2013-08-10 12:29:00,
2013-08-10 07:35:00,64.8,62.7,30.16,North,9,5.0,7.0,93,0.00,,,0.00,Wunderground v.1.15,2013-08-10 12:35:00,
2013-08-10 07:40:00,65.1,63.0,30.16,NNE,13,5.0,5.0,93,0.00,,,0.00,Wunderground v.1.15,2013-08-10 12:40:00,
2013-08-10 07:45:00,65.5,63.1,30.16,NNW,342,5.0,6.0,92,0.00,,,0.00,Wunderground v.1.15,2013-08-10 12:45:00,
2013-08-10 07:50:00,65.9,63.5,30.16,NNE,26,5.0,5.0,92,0.00,,,0.00,Wunderground v.1.15,2013-08-10 12:50:00,
2013-08-10 07:55:00,66.4,63.7,30.17,North,9,5.0,7.0,91,0.00,,,0.00,Wunderground v.1.15,2013-08-10 12:55:00,
2013-08-10 08:01:00,66.9,63.9,30.17,NNE,14,5.0,7.0,90,0.00,,,0.00,Wunderground v.1.15,2013-08-10 13:01:00,
2013-08-10 08:07:00,67.2,63.8,30.17,NNE,20,5.0,7.0,89,0.00,,,0.00,Wunderground v.1.15,2013-08-10 13:07:00,
2013-08-10 08:12:00,67.4,64.0,30.16,NNE,26,5.0,8.0,89,0.00,,,0.00,Wunderground v.1.15,2013-08-10 13:12:00,
2013-08-10 08:17:00,67.5,64.1,30.16,NNE,22,5.0,8.0,89,0.00,,,0.00,Wunderground v.1.15,2013-08-10 13:17:00,
2013-08-10 08:22:00,67.7,64.3,30.16,NNE,28,6.0,8.0,89,0.00,,,0.00,Wunderground v.1.15,2013-08-10 13:22:00,
2013-08-10 08:28:00,67.8,64.1,30.17,NNE,25,6.0,8.0,88,0.00,,,0.00,Wunderground v.1.15,2013-08-10 13:28:00,
2013-08-10 08:34:00,68.0,64.3,30.17,NE,44,5.0,6.0,88,0.00,,,0.00,Wunderground v.1.15,2013-08-10 13:34:00,
2013-08-10 08:39:00,68.2,64.8,30.17,NE,41,5.0,7.0,89,0.00,,,0.00,Wunderground v.1.15,2013-08-10 13:39:00,
2013-08-10 08:44:00,68.6,64.9,30.17,NE,37,5.0,7.0,88,0.00,,,0.00,Wunderground v.1.15,2013-08-10 13:44:00,
2013-08-10 08:49:00,68.9,65.2,30.17,NE,34,5.0,7.0,88,0.00,,,0.00,Wunderground v.1.15,2013-08-10 13:49:00,
2013-08-10 08:55:00,69.1,65.1,30.18,NNE,22,5.0,7.0,87,0.00,,,0.00,Wunderground v.1.15,2013-08-10 13:55:00,
2013-08-10 09:00:00,69.4,65.4,30.18,NE,44,6.0,6.0,87,0.00,,,0.00,Wunderground v.1.15,2013-08-10 14:00:00,
2013-08-10 09:06:00,69.7,65.0,30.18,NE,56,6.0,7.0,85,0.00,,,0.00,Wunderground v.1.15,2013-08-10 14:06:00,
2013-08-10 09:11:00,70.1,65.4,30.17,NNE,30,5.0,7.0,85,0.00,,,0.00,Wunderground v.1.15,2013-08-10 14:11:00,
2013-08-10 09:16:00,70.3,64.9,30.18,ENE,60,5.0,8.0,83,0.00,,,0.00,Wunderground v.1.15,2013-08-10 14:16:00,
2013-08-10 09:21:00,70.7,65.3,30.17,ENE,57,5.0,8.0,83,0.00,,,0.00,Wunderground v.1.15,2013-08-10 14:21:00,
2013-08-10 09:26:00,71.0,65.2,30.18,NNE,26,5.0,8.0,82,0.00,,,0.00,Wunderground v.1.15,2013-08-10 14:26:00,
2013-08-10 09:32:00,71.4,66.0,30.18,NE,46,6.0,8.0,83,0.00,,,0.00,Wunderground v.1.15,2013-08-10 14:32:00,
2013-08-10 09:37:00,71.7,65.6,30.18,NE,44,6.0,10.0,81,0.00,,,0.00,Wunderground v.1.15,2013-08-10 14:37:00,
2013-08-10 09:43:00,71.8,65.7,30.18,NE,46,7.0,11.0,81,0.00,,,0.00,Wunderground v.1.15,2013-08-10 14:43:00,
2013-08-10 09:49:00,72.4,66.2,30.18,NE,50,7.0,11.0,81,0.00,,,0.00,Wunderground v.1.15,2013-08-10 14:49:00,
2013-08-10 09:54:00,72.6,65.7,30.18,ENE,61,7.0,10.0,79,0.00,,,0.00,Wunderground v.1.15,2013-08-10 14:54:00,
2013-08-10 10:00:00,72.9,66.4,30.19,NE,38,6.0,8.0,80,0.00,,,0.00,Wunderground v.1.15,2013-08-10 15:00:00,
2013-08-10 10:06:00,73.2,65.9,30.18,NNE,17,6.0,9.0,78,0.00,,,0.00,Wunderground v.1.15,2013-08-10 15:06:00,
2013-08-10 10:11:00,73.4,65.7,30.18,NE,51,5.0,11.0,77,0.00,,,0.00,Wunderground v.1.15,2013-08-10 15:11:00,
2013-08-10 10:17:00,73.9,67.3,30.18,NE,49,6.0,11.0,80,0.00,,,0.00,Wunderground v.1.15,2013-08-10 15:17:00,
2013-08-10 10:22:00,74.1,66.8,30.18,ENE,57,6.0,7.0,78,0.00,,,0.00,Wunderground v.1.15,2013-08-10 15:22:00,
2013-08-10 10:27:00,74.3,67.0,30.18,ENE,63,6.0,9.0,78,0.00,,,0.00,Wunderground v.1.15,2013-08-10 15:27:00,
2013-08-10 10:33:00,74.7,66.2,30.18,NE,34,6.0,10.0,75,0.00,,,0.00,Wunderground v.1.15,2013-08-10 15:33:00,
2013-08-10 10:38:00,74.7,66.2,30.18,NE,51,6.0,10.0,75,0.00,,,0.00,Wunderground v.1.15,2013-08-10 15:38:00,
2013-08-10 10:43:00,75.0,66.5,30.18,NE,56,5.0,10.0,75,0.00,,,0.00,Wunderground v.1.15,2013-08-10 15:43:00,
2013-08-10 10:48:00,75.4,66.5,30.18,ENE,71,6.0,11.0,74,0.00,,,0.00,Wunderground v.1.15,2013-08-10 15:48:00,
2013-08-10 10:54:00,75.8,66.5,30.18,NE,53,7.0,13.0,73,0.00,,,0.00,Wunderground v.1.15,2013-08-10 15:54:00,
2013-08-10 11:00:00,76.0,66.7,30.18,ENE,74,7.0,7.0,73,0.00,,,0.00,Wunderground v.1.15,2013-08-10 16:00:00,
2013-08-10 11:05:00,76.2,66.5,30.18,East,95,8.0,11.0,72,0.00,,,0.00,Wunderground v.1.15,2013-08-10 16:05:00,
2013-08-10 11:11:00,76.3,66.6,30.18,NE,51,9.0,13.0,72,0.00,,,0.00,Wunderground v.1.15,2013-08-10 16:11:00,
2013-08-10 11:17:00,76.5,66.0,30.19,ENE,66,10.0,13.0,70,0.00,,,0.00,Wunderground v.1.15,2013-08-10 16:17:00,
2013-08-10 11:22:00,76.6,66.5,30.19,ENE,71,9.0,12.0,71,0.00,,,0.00,Wunderground v.1.15,2013-08-10 16:22:00,
2013-08-10 11:28:00,76.8,65.9,30.18,NE,51,8.0,13.0,69,0.00,,,0.00,Wunderground v.1.15,2013-08-10 16:28:00,
2013-08-10 11:34:00,77.0,66.5,30.19,ENE,77,9.0,13.0,70,0.00,,,0.00,Wunderground v.1.15,2013-08-10 16:34:00,
2013-08-10 11:39:00,77.3,68.0,30.18,ENE,73,8.0,13.0,73,0.00,,,0.00,Wunderground v.1.15,2013-08-10 16:39:00,
2013-08-10 11:44:00,77.4,65.1,30.18,ENE,59,7.0,10.0,66,0.00,,,0.00,Wunderground v.1.15,2013-08-10 16:44:00,
2013-08-10 11:50:00,77.4,65.6,30.18,ENE,71,8.0,11.0,67,0.00,,,0.00,Wunderground v.1.15,2013-08-10 16:50:00,
2013-08-10 11:55:00,77.6,66.2,30.18,East,83,9.0,13.0,68,0.00,,,0.00,Wunderground v.1.15,2013-08-10 16:55:00,
2013-08-10 12:00:00,77.9,67.3,30.18,ENE,68,8.0,13.0,70,0.00,,,0.00,Wunderground v.1.15,2013-08-10 17:00:00,
2013-08-10 12:06:00,77.8,66.4,30.18,NE,55,8.0,15.0,68,0.00,,,0.00,Wunderground v.1.15,2013-08-10 17:06:00,
2013-08-10 12:11:00,77.6,66.6,30.17,ENE,65,6.0,13.0,69,0.00,,,0.00,Wunderground v.1.15,2013-08-10 17:11:00,
2013-08-10 12:16:00,77.9,67.3,30.17,ENE,69,7.0,13.0,70,0.00,,,0.00,Wunderground v.1.15,2013-08-10 17:16:00,
2013-08-10 12:22:00,77.9,66.9,30.17,ENE,59,9.0,14.0,69,0.00,,,0.00,Wunderground v.1.15,2013-08-10 17:22:00,
2013-08-10 12:27:00,78.0,67.0,30.17,ENE,59,8.0,14.0,69,0.00,,,0.00,Wunderground v.1.15,2013-08-10 17:27:00,
2013-08-10 12:33:00,78.2,67.6,30.17,ENE,71,9.0,13.0,70,0.00,,,0.00,Wunderground v.1.15,2013-08-10 17:33:00,
2013-08-10 12:38:00,78.3,66.9,30.17,NE,34,8.0,13.0,68,0.00,,,0.00,Wunderground v.1.15,2013-08-10 17:38:00,
2013-08-10 12:44:00,78.4,67.0,30.17,NE,38,7.0,10.0,68,0.00,,,0.00,Wunderground v.1.15,2013-08-10 17:44:00,
2013-08-10 12:50:00,78.8,66.5,30.17,ENE,69,7.0,7.0,66,0.00,,,0.00,Wunderground v.1.15,2013-08-10 17:50:00,
2013-08-10 12:56:00,79.2,66.9,30.16,NE,53,8.0,12.0,66,0.00,,,0.00,Wunderground v.1.15,2013-08-10 17:56:00,
2013-08-10 13:01:00,79.3,67.0,30.16,ESE,119,7.0,7.0,66,0.00,,,0.00,Wunderground v.1.15,2013-08-10 18:01:00,
2013-08-10 13:07:00,79.8,68.7,30.16,ENE,72,6.0,11.0,69,0.00,,,0.00,Wunderground v.1.15,2013-08-10 18:07:00,
2013-08-10 13:12:00,80.1,66.8,30.16,ESE,120,7.0,8.0,64,0.00,,,0.00,Wunderground v.1.15,2013-08-10 18:12:00,
2013-08-10 13:18:00,80.4,66.6,30.16,East,84,6.0,10.0,63,0.00,,,0.00,Wunderground v.1.15,2013-08-10 18:18:00,
2013-08-10 13:23:00,80.1,66.4,30.16,ESE,108,7.0,13.0,63,0.00,,,0.00,Wunderground v.1.15,2013-08-10 18:23:00,
2013-08-10 13:28:00,79.6,66.8,30.16,NE,55,7.0,13.0,65,0.00,,,0.00,Wunderground v.1.15,2013-08-10 18:28:00,
2013-08-10 13:34:00,79.6,66.8,30.16,ENE,68,6.0,11.0,65,0.00,,,0.00,Wunderground v.1.15,2013-08-10 18:34:00,
2013-08-10 13:39:00,79.7,65.5,30.16,ENE,74,5.0,11.0,62,0.00,,,0.00,Wunderground v.1.15,2013-08-10 18:39:00,
2013-08-10 13:45:00,79.4,67.5,30.16,East,93,5.0,10.0,67,0.00,,,0.00,Wunderground v.1.15,2013-08-10 18:45:00,
2013-08-10 13:51:00,79.9,68.4,30.15,ENE,67,6.0,10.0,68,0.00,,,0.00,Wunderground v.1.15,2013-08-10 18:51:00,
2013-08-10 13:56:00,80.3,67.5,30.15,ESE,104,7.0,14.0,65,0.00,,,0.00,Wunderground v.1.15,2013-08-10 18:56:00,
2013-08-10 14:01:00,80.8,66.6,30.15,East,79,8.0,9.0,62,0.00,,,0.00,Wunderground v.1.15,2013-08-10 19:01:00,
2013-08-10 14:07:00,81.0,66.8,30.15,NE,41,7.0,10.0,62,0.00,,,0.00,Wunderground v.1.15,2013-08-10 19:07:00,
2013-08-10 14:12:00,80.9,68.5,30.15,NE,34,7.0,11.0,66,0.00,,,0.00,Wunderground v.1.15,2013-08-10 19:12:00,
2013-08-10 14:17:00,80.5,66.7,30.15,East,80,7.0,11.0,63,0.00,,,0.00,Wunderground v.1.15,2013-08-10 19:17:00,
2013-08-10 14:23:00,80.1,67.3,30.15,ESE,108,5.0,8.0,65,0.00,,,0.00,Wunderground v.1.15,2013-08-10 19:23:00,
2013-08-10 14:28:00,80.7,69.6,30.14,East,97,5.0,9.0,69,0.00,,,0.00,Wunderground v.1.15,2013-08-10 19:28:00,
2013-08-10 14:33:00,81.5,67.2,30.14,ENE,65,5.0,10.0,62,0.00,,,0.00,Wunderground v.1.15,2013-08-10 19:33:00,
2013-08-10 14:39:00,81.3,68.0,30.14,ENE,61,7.0,10.0,64,0.00,,,0.00,Wunderground v.1.15,2013-08-10 19:39:00,
2013-08-10 14:44:00,80.6,66.4,30.14,ENE,67,7.0,11.0,62,0.00,,,0.00,Wunderground v.1.15,2013-08-10 19:44:00,
2013-08-10 14:50:00,81.0,67.7,30.14,ENE,70,5.0,7.0,64,0.00,,,0.00,Wunderground v.1.15,2013-08-10 19:50:00,
2013-08-10 14:56:00,81.7,67.4,30.14,ESE,107,6.0,11.0,62,0.00,,,0.00,Wunderground v.1.15,2013-08-10 19:56:00,
2013-08-10 15:01:00,82.1,69.6,30.13,SE,127,6.0,10.0,66,0.00,,,0.00,Wunderground v.1.15,2013-08-10 20:01:00,
2013-08-10 15:07:00,82.7,67.4,30.13,SE,124,5.0,10.0,60,0.00,,,0.00,Wunderground v.1.15,2013-08-10 20:07:00,
2013-08-10 15:12:00,82.8,67.5,30.13,ENE,59,7.0,14.0,60,0.00,,,0.00,Wunderground v.1.15,2013-08-10 20:12:00,
2013-08-10 15:18:00,82.2,68.3,30.12,ENE,75,8.0,14.0,63,0.00,,,0.00,Wunderground v.1.15,2013-08-10 20:18:00,
2013-08-10 15:23:00,82.0,66.3,30.12,East,84,8.0,11.0,59,0.00,,,0.00,Wunderground v.1.15,2013-08-10 20:23:00,
2013-08-10 15:29:00,82.5,65.2,30.12,ESE,123,8.0,11.0,56,0.00,,,0.00,Wunderground v.1.15,2013-08-10 20:29:00,
2013-08-10 15:34:00,83.0,66.2,30.12,ESE,112,6.0,9.0,57,0.00,,,0.00,Wunderground v.1.15,2013-08-10 20:34:00,
2013-08-10 15:39:00,82.5,68.2,30.11,NE,51,6.0,11.0,62,0.00,,,0.00,Wunderground v.1.15,2013-08-10 20:39:00,
2013-08-10 15:45:00,81.9,67.1,30.11,NNE,27,6.0,8.0,61,0.00,,,0.00,Wunderground v.1.15,2013-08-10 20:45:00,
2013-08-10 15:50:00,82.1,68.3,30.11,NNE,32,5.0,5.0,63,0.00,,,0.00,Wunderground v.1.15,2013-08-10 20:50:00,
2013-08-10 15:55:00,82.1,67.3,30.11,East,80,6.0,14.0,61,0.00,,,0.00,Wunderground v.1.15,2013-08-10 20:55:00,
2013-08-10 16:01:00,81.9,69.0,30.11,NE,48,7.0,9.0,65,0.00,,,0.00,Wunderground v.1.15,2013-08-10 21:01:00,
2013-08-10 16:07:00,82.3,67.5,30.11,East,86,8.0,14.0,61,0.00,,,0.00,Wunderground v.1.15,2013-08-10 21:07:00,
2013-08-10 16:12:00,82.5,66.7,30.10,ESE,112,9.0,11.0,59,0.00,,,0.00,Wunderground v.1.15,2013-08-10 21:12:00,
2013-08-10 16:18:00,82.9,66.1,30.10,East,89,7.0,11.0,57,0.00,,,0.00,Wunderground v.1.15,2013-08-10 21:18:00,
2013-08-10 16:23:00,83.1,67.3,30.10,ESE,110,6.0,12.0,59,0.00,,,0.00,Wunderground v.1.15,2013-08-10 21:23:00,
2013-08-10 16:29:00,83.2,66.9,30.10,ESE,122,7.0,12.0,58,0.00,,,0.00,Wunderground v.1.15,2013-08-10 21:29:00,
2013-08-10 16:34:00,83.3,64.9,30.09,East,84,8.0,11.0,54,0.00,,,0.00,Wunderground v.1.15,2013-08-10 21:34:00,
2013-08-10 16:40:00,83.2,65.9,30.09,East,87,7.0,7.0,56,0.00,,,0.00,Wunderground v.1.15,2013-08-10 21:40:00,
2013-08-10 16:45:00,83.3,66.5,30.09,SE,141,5.0,8.0,57,0.00,,,0.00,Wunderground v.1.15,2013-08-10 21:45:00,
2013-08-10 16:50:00,83.4,66.1,30.09,East,96,5.0,11.0,56,0.00,,,0.00,Wunderground v.1.15,2013-08-10 21:50:00,
2013-08-10 16:56:00,83.3,64.4,30.09,East,100,7.0,15.0,53,0.00,,,0.00,Wunderground v.1.15,2013-08-10 21:56:00,
2013-08-10 17:02:00,83.4,66.1,30.08,SSE,153,6.0,7.0,56,0.00,,,0.00,Wunderground v.1.15,2013-08-10 22:02:00,
2013-08-10 17:08:00,83.4,66.6,30.08,SE,128,5.0,9.0,57,0.00,,,0.00,Wunderground v.1.15,2013-08-10 22:08:00,
2013-08-10 17:13:00,83.2,66.4,30.08,SE,124,6.0,11.0,57,0.00,,,0.00,Wunderground v.1.15,2013-08-10 22:13:00,
2013-08-10 17:19:00,83.3,67.5,30.08,SE,134,6.0,11.0,59,0.00,,,0.00,Wunderground v.1.15,2013-08-10 22:19:00,
2013-08-10 17:24:00,83.6,67.8,30.08,SSE,155,6.0,9.0,59,0.00,,,0.00,Wunderground v.1.15,2013-08-10 22:24:00,
2013-08-10 17:29:00,83.6,68.2,30.08,East,82,5.0,9.0,60,0.00,,,0.00,Wunderground v.1.15,2013-08-10 22:29:00,
2013-08-10 17:35:00,83.6,67.3,30.08,SE,128,5.0,11.0,58,0.00,,,0.00,Wunderground v.1.15,2013-08-10 22:35:00,
2013-08-10 17:40:00,83.3,66.0,30.08,East,88,7.0,10.0,56,0.00,,,0.00,Wunderground v.1.15,2013-08-10 22:40:00,
2013-08-10 17:46:00,82.6,65.3,30.08,ESE,108,7.0,10.0,56,0.00,,,0.00,Wunderground v.1.15,2013-08-10 22:46:00,
2013-08-10 17:51:00,82.4,64.6,30.08,ESE,109,6.0,6.0,55,0.00,,,0.00,Wunderground v.1.15,2013-08-10 22:51:00,
2013-08-10 17:57:00,82.9,68.1,30.08,SE,124,3.0,6.0,61,0.00,,,0.00,Wunderground v.1.15,2013-08-10 22:57:00,
2013-08-10 18:02:00,83.3,65.4,30.08,ESE,117,3.0,7.0,55,0.00,,,0.00,Wunderground v.1.15,2013-08-10 23:02:00,
2013-08-10 18:08:00,83.5,66.7,30.07,ESE,116,4.0,9.0,57,0.00,,,0.00,Wunderground v.1.15,2013-08-10 23:08:00,
2013-08-10 18:14:00,83.5,66.2,30.07,SE,146,5.0,9.0,56,0.00,,,0.00,Wunderground v.1.15,2013-08-10 23:14:00,
2013-08-10 18:20:00,83.4,66.1,30.07,East,94,4.0,4.0,56,0.00,,,0.00,Wunderground v.1.15,2013-08-10 23:20:00,
2013-08-10 18:25:00,83.4,67.1,30.07,East,92,3.0,5.0,58,0.00,,,0.00,Wunderground v.1.15,2013-08-10 23:25:00,
2013-08-10 18:30:00,83.2,66.9,30.07,ESE,115,5.0,8.0,58,0.00,,,0.00,Wunderground v.1.15,2013-08-10 23:30:00,
2013-08-10 18:35:00,83.1,65.8,30.06,SE,126,6.0,9.0,56,0.00,,,0.00,Wunderground v.1.15,2013-08-10 23:35:00,
2013-08-10 18:40:00,83.1,65.8,30.06,East,101,5.0,5.0,56,0.00,,,0.00,Wunderground v.1.15,2013-08-10 23:40:00,
2013-08-10 18:46:00,83.0,67.2,30.06,ENE,78,4.0,6.0,59,0.00,,,0.00,Wunderground v.1.15,2013-08-10 23:46:00,
2013-08-10 18:51:00,82.7,66.9,30.05,East,95,4.0,7.0,59,0.00,,,0.00,Wunderground v.1.15,2013-08-10 23:51:00,
2013-08-10 18:57:00,82.6,65.8,30.05,East,84,6.0,9.0,57,0.00,,,0.00,Wunderground v.1.15,2013-08-10 23:57:00,
2013-08-10 19:02:00,82.3,66.5,30.05,ESE,103,7.0,11.0,59,0.00,,,0.00,Wunderground v.1.15,2013-08-11 00:02:00,
2013-08-10 19:07:00,82.1,66.8,30.05,ESE,113,6.0,11.0,60,0.00,,,0.00,Wunderground v.1.15,2013-08-11 00:07:00,
2013-08-10 19:13:00,82.0,67.2,30.05,ESE,111,6.0,9.0,61,0.00,,,0.00,Wunderground v.1.15,2013-08-11 00:13:00,
2013-08-10 19:19:00,81.8,67.0,30.05,East,99,6.0,9.0,61,0.00,,,0.00,Wunderground v.1.15,2013-08-11 00:19:00,
2013-08-10 19:24:00,81.6,66.4,30.05,ESE,107,5.0,8.0,60,0.00,,,0.00,Wunderground v.1.15,2013-08-11 00:24:00,
2013-08-10 19:30:00,81.5,66.8,30.05,ESE,103,5.0,7.0,61,0.00,,,0.00,Wunderground v.1.15,2013-08-11 00:30:00,
2013-08-10 19:36:00,81.0,66.3,30.05,ESE,111,5.0,8.0,61,0.00,,,0.00,Wunderground v.1.15,2013-08-11 00:36:00,
2013-08-10 19:41:00,80.6,66.4,30.05,ESE,112,4.0,5.0,62,0.00,,,0.00,Wunderground v.1.15,2013-08-11 00:41:00,
2013-08-10 19:47:00,80.3,66.6,30.05,ESE,118,4.0,5.0,63,0.00,,,0.00,Wunderground v.1.15,2013-08-11 00:47:00,
2013-08-10 19:52:00,80.2,66.5,30.05,ESE,109,4.0,5.0,63,0.00,,,0.00,Wunderground v.1.15,2013-08-11 00:52:00,
2013-08-10 19:58:00,80.0,66.3,30.05,ESE,120,4.0,5.0,63,0.00,,,0.00,Wunderground v.1.15,2013-08-11 00:58:00,
2013-08-10 20:04:00,79.7,66.4,30.05,ESE,110,4.0,5.0,64,0.00,,,0.00,Wunderground v.1.15,2013-08-11 01:04:00,
2013-08-10 20:09:00,79.4,66.6,30.05,ESE,117,3.0,5.0,65,0.00,,,0.00,Wunderground v.1.15,2013-08-11 01:09:00,
2013-08-10 20:14:00,79.2,67.7,30.05,ESE,115,3.0,4.0,68,0.00,,,0.00,Wunderground v.1.15,2013-08-11 01:14:00,
2013-08-10 20:19:00,78.8,67.3,30.05,ESE,115,2.0,4.0,68,0.00,,,0.00,Wunderground v.1.15,2013-08-11 01:19:00,
2013-08-10 20:25:00,78.4,67.4,30.05,ESE,115,2.0,3.0,69,0.00,,,0.00,Wunderground v.1.15,2013-08-11 01:25:00,
2013-08-10 20:31:00,78.0,67.4,30.05,ESE,115,2.0,3.0,70,0.00,,,0.00,Wunderground v.1.15,2013-08-11 01:31:00,
2013-08-10 20:36:00,77.7,67.5,30.05,ESE,115,2.0,3.0,71,0.00,,,0.00,Wunderground v.1.15,2013-08-11 01:36:00,
2013-08-10 20:41:00,77.5,67.4,30.05,ESE,115,2.0,3.0,71,0.00,,,0.00,Wunderground v.1.15,2013-08-11 01:41:00,
2013-08-10 20:47:00,77.2,67.1,30.05,ESE,115,2.0,3.0,71,0.00,,,0.00,Wunderground v.1.15,2013-08-11 01:47:00,
2013-08-10 20:52:00,77.0,67.7,30.05,ESE,115,2.0,3.0,73,0.00,,,0.00,Wunderground v.1.15,2013-08-11 01:52:00,
2013-08-10 20:57:00,76.7,67.4,30.05,ESE,115,2.0,3.0,73,0.00,,,0.00,Wunderground v.1.15,2013-08-11 01:57:00,
2013-08-10 21:02:00,76.5,67.6,30.05,ESE,111,2.0,4.0,74,0.00,,,0.00,Wunderground v.1.15,2013-08-11 02:02:00,
2013-08-10 21:08:00,76.2,67.3,30.05,ESE,113,3.0,4.0,74,0.00,,,0.00,Wunderground v.1.15,2013-08-11 02:08:00,
2013-08-10 21:13:00,76.1,67.2,30.05,ESE,115,4.0,5.0,74,0.00,,,0.00,Wunderground v.1.15,2013-08-11 02:13:00,
2013-08-10 21:19:00,76.0,67.1,30.05,ESE,119,3.0,5.0,74,0.00,,,0.00,Wunderground v.1.15,2013-08-11 02:19:00,
2013-08-10 21:24:00,75.9,67.0,30.06,ESE,119,3.0,4.0,74,0.00,,,0.00,Wunderground v.1.15,2013-08-11 02:24:00,
2013-08-10 21:29:00,75.7,66.8,30.06,ESE,115,3.0,5.0,74,0.00,,,0.00,Wunderground v.1.15,2013-08-11 02:29:00,
2013-08-10 21:34:00,75.5,67.0,30.06,ESE,113,3.0,4.0,75,0.00,,,0.00,Wunderground v.1.15,2013-08-11 02:34:00,
2013-08-10 21:39:00,75.4,66.9,30.06,ESE,112,3.0,4.0,75,0.00,,,0.00,Wunderground v.1.15,2013-08-11 02:39:00,
2013-08-10 21:45:00,75.3,66.8,30.06,ESE,111,3.0,4.0,75,0.00,,,0.00,Wunderground v.1.15,2013-08-11 02:45:00,
2013-08-10 21:50:00,75.2,66.7,30.06,ESE,113,4.0,4.0,75,0.00,,,0.00,Wunderground v.1.15,2013-08-11 02:50:00,
2013-08-10 21:55:00,75.1,67.0,30.07,ESE,115,4.0,5.0,76,0.00,,,0.00,Wunderground v.1.15,2013-08-11 02:55:00,
2013-08-10 22:00:00,75.0,66.9,30.07,SE,125,3.0,3.0,76,0.00,,,0.00,Wunderground v.1.15,2013-08-11 03:00:00,
2013-08-10 22:06:00,74.7,67.0,30.07,ESE,123,3.0,4.0,77,0.00,,,0.00,Wunderground v.1.15,2013-08-11 03:06:00,
2013-08-10 22:12:00,74.5,67.2,30.08,ESE,122,3.0,4.0,78,0.00,,,0.00,Wunderground v.1.15,2013-08-11 03:12:00,
2013-08-10 22:17:00,74.4,67.1,30.08,ESE,121,3.0,5.0,78,0.00,,,0.00,Wunderground v.1.15,2013-08-11 03:17:00,
2013-08-10 22:22:00,74.4,67.1,30.08,ESE,120,3.0,4.0,78,0.00,,,0.00,Wunderground v.1.15,2013-08-11 03:22:00,
2013-08-10 22:27:00,74.3,67.0,30.08,ESE,120,3.0,4.0,78,0.00,,,0.00,Wunderground v.1.15,2013-08-11 03:27:00,
2013-08-10 22:33:00,74.2,66.9,30.08,ESE,120,3.0,3.0,78,0.00,,,0.00,Wunderground v.1.15,2013-08-11 03:33:00,
2013-08-10 22:39:00,74.0,67.1,30.09,ESE,117,3.0,5.0,79,0.00,,,0.00,Wunderground v.1.15,2013-08-11 03:39:00,
2013-08-10 22:44:00,73.9,67.0,30.09,ESE,116,3.0,4.0,79,0.00,,,0.00,Wunderground v.1.15,2013-08-11 03:44:00,
2013-08-10 22:49:00,73.8,66.9,30.09,ESE,116,3.0,4.0,79,0.00,,,0.00,Wunderground v.1.15,2013-08-11 03:49:00,
2013-08-10 22:54:00,73.7,66.8,30.09,ESE,116,3.0,4.0,79,0.00,,,0.00,Wunderground v.1.15,2013-08-11 03:54:00,
2013-08-10 23:00:00,73.5,66.9,30.09,ESE,116,2.0,3.0,80,0.00,,,0.00,Wunderground v.1.15,2013-08-11 04:00:00,
2013-08-10 23:01:00,73.5,66.9,30.09,ESE,116,2.0,3.0,80,0.00,,,0.00,Wunderground v.1.15,2013-08-11 04:01:00,
2013-08-10 23:02:00,73.5,66.9,30.09,ESE,116,2.0,3.0,80,0.00,,,0.00,Wunderground v.1.15,2013-08-11 04:02:00,
2013-08-10 23:03:00,73.5,66.9,30.09,ESE,116,2.0,3.0,80,0.00,,,0.00,Wunderground v.1.15,2013-08-11 04:03:00,
2013-08-10 23:08:00,73.4,66.9,30.09,ESE,116,2.0,3.0,80,0.00,,,0.00,Wunderground v.1.15,2013-08-11 04:08:00,
2013-08-10 23:10:00,73.3,66.8,30.09,ESE,116,2.0,3.0,80,0.00,,,0.00,Wunderground v.1.15,2013-08-11 04:10:00,
2013-08-10 23:15:00,73.2,67.0,30.09,ESE,116,2.0,3.0,81,0.00,,,0.00,Wunderground v.1.15,2013-08-11 04:15:00,
2013-08-10 23:20:00,73.0,66.8,30.10,ESE,116,2.0,2.0,81,0.00,,,0.00,Wunderground v.1.15,2013-08-11 04:20:00,
2013-08-10 23:26:00,72.8,66.6,30.10,ESE,116,1.0,3.0,81,0.00,,,0.00,Wunderground v.1.15,2013-08-11 04:26:00,
2013-08-10 23:32:00,72.6,66.8,30.09,ESE,116,0.0,0.0,82,0.00,,,0.00,Wunderground v.1.15,2013-08-11 04:32:00,
2013-08-10 23:38:00,72.3,66.8,30.10,ESE,116,0.0,1.0,83,0.00,,,0.00,Wunderground v.1.15,2013-08-11 04:38:00,
2013-08-10 23:43:00,72.1,66.6,30.10,ESE,123,1.0,4.0,83,0.00,,,0.00,Wunderground v.1.15,2013-08-11 04:43:00,
2013-08-10 23:48:00,72.0,66.6,30.10,SE,124,2.0,4.0,83,0.00,,,0.00,Wunderground v.1.15,2013-08-11 04:48:00,
2013-08-10 23:53:00,72.0,66.6,30.10,ESE,123,3.0,4.0,83,0.00,,,0.00,Wunderground v.1.15,2013-08-11 04:53:00,
2013-08-10 23:58:00,72.0,66.6,30.10,ESE,123,3.0,4.0,83,0.00,,,0.00,Wunderground v.1.15,2013-08-11 04:58:00,